Weather History for Pompano Beach, FL

Change the Weather History Date:

Saturday, June 29, 2013

  Actual Average Record
Temperature  
Mean Temperature 82 °F -  
Max Temperature 90 °F 90 °F 95 °F (1959)
Min Temperature 75 °F 72 °F 64 °F (1950)
Cooling Degree Days 16    
Growing Degree Days 32 (Base 50)    
Moisture  
Dew Point 76 °F    
Average Humidity 87    
Maximum Humidity 100    
Minimum Humidity 67    
Precipitation  
Precipitation 0.68 in - - ()
Sea Level Pressure  
Sea Level Pressure 29.90 in    
Wind  
Wind Speed 6 mph (South)    
Max Wind Speed 17 mph    
Max Gust Speed 21 mph    
Visibility 8 miles    
Events Rain , Thunderstorm    
Averages and records for this station are not official NWS values.
T = Trace of Precipitation, MM = Missing Value Source: NWS Daily Summary

Daily Weather History Graph

Daily Weather History Graph

Search for Another Location

Airport:

Trip Planner

Search our weather history database for the weather conditions in past years. The results will help you decide how hot, cold, wet, or windy it might be!

Date:

Astronomy

Jun. 29, 2013 Rise Set
Actual Time 6:30 AM EDT 8:16 PM EDT
Civil Twilight 6:04 AM EDT 8:43 PM EDT
Nautical Twilight 5:33 AM EDT 9:14 PM EDT
Astronomical Twilight 5:00 AM EDT 9:47 PM EDT
Moon 12:23 AM EDT (6/29) 12:58 PM EDT (6/29)
Length of Visible Light 14h 38m
Length of Day
13h 45m
Waning Gibbous, 56% of the Moon is Illuminated
Jun 29
Waning Gibbous
Jun 30
Last Quarter
Jul 8
New
Jul 15
First Quarter
Jul 22
Full

Hourly Weather History & Observations

Time (EDT) Temp. Heat Index Dew Point Humidity Pressure Visibility Wind Dir Wind Speed Gust Speed Precip Events Conditions
12:14 AM 77.0 °F - 75.2 °F 94% 29.92 in 10.0 mi SE 5.8 mph - 0.00 in   Scattered Clouds
12:53 AM 78.1 °F - 77.0 °F 96% 29.92 in 10.0 mi Calm Calm - 0.00 in   Clear
1:53 AM 79.0 °F - 77.0 °F 94% 29.91 in 10.0 mi Calm Calm - N/A   Partly Cloudy
2:31 AM 78.8 °F - 78.8 °F 100% 29.89 in 10.0 mi Calm Calm - N/A   Mostly Cloudy
2:42 AM 80.6 °F 87.1 °F 77.0 °F 89% 29.89 in 10.0 mi Calm Calm - N/A   Scattered Clouds
2:53 AM 80.1 °F 85.8 °F 77.0 °F 90% 29.89 in 10.0 mi South 4.6 mph - N/A   Scattered Clouds
3:53 AM 79.0 °F - 77.0 °F 94% 29.88 in 10.0 mi West 4.6 mph - N/A   Partly Cloudy
4:43 AM 78.8 °F - 75.2 °F 89% 29.89 in 10.0 mi SSE 9.2 mph - 0.00 in Rain Light Rain
4:53 AM 78.1 °F - 73.9 °F 87% 29.91 in 3.0 mi South 15.0 mph 19.6 mph 0.09 in Rain Heavy Rain
4:56 AM 77.0 °F - 75.2 °F 94% 29.91 in 1.8 mi SSW 10.4 mph 19.6 mph 0.11 in Rain Heavy Rain
5:10 AM 77.0 °F - 75.2 °F 94% 29.90 in 2.5 mi WSW 3.5 mph - 0.29 in Rain Heavy Rain
5:17 AM 75.2 °F - 75.2 °F 100% 29.90 in 3.0 mi NNE 3.5 mph - 0.30 in Rain , Thunderstorm Thunderstorms and Rain
5:35 AM 77.0 °F - 75.2 °F 94% 29.91 in 10.0 mi SE 16.1 mph 19.6 mph 0.31 in Rain , Thunderstorm Light Rain
5:42 AM 75.2 °F - 73.4 °F 94% 29.91 in 10.0 mi East 9.2 mph 19.6 mph 0.31 in Thunderstorm Thunderstorm
5:53 AM 75.9 °F - 73.9 °F 94% 29.91 in 1.8 mi SE 8.1 mph - 0.46 in Rain , Thunderstorm Heavy Thunderstorms and Rain
6:00 AM 77.0 °F - 75.2 °F 94% 29.90 in 2.0 mi East 4.6 mph - 0.11 in Rain , Thunderstorm Heavy Thunderstorms and Rain
6:06 AM 75.2 °F - 75.2 °F 100% 29.90 in 3.0 mi East 4.6 mph - 0.12 in Rain Rain
6:53 AM 75.0 °F - 75.0 °F 100% 29.91 in 10.0 mi NNW 4.6 mph - 0.12 in   Clear
7:53 AM 78.1 °F - 78.1 °F 100% 29.91 in 10.0 mi Calm Calm - N/A   Clear
8:53 AM 82.0 °F 90.2 °F 77.0 °F 85% 29.91 in 10.0 mi South 4.6 mph - N/A   Scattered Clouds
9:53 AM 84.9 °F 94.1 °F 75.9 °F 74% 29.90 in 10.0 mi SE 10.4 mph - N/A   Scattered Clouds
10:53 AM 86.0 °F 96.9 °F 77.0 °F 74% 29.90 in 10.0 mi SSE 9.2 mph - N/A   Scattered Clouds
11:53 AM 86.0 °F 95.1 °F 75.0 °F 70% 29.91 in 10.0 mi SE 9.2 mph - N/A   Clear
12:53 PM 87.1 °F 97.3 °F 75.9 °F 69% 29.89 in 10.0 mi SSE 11.5 mph 18.4 mph N/A   Clear
1:53 PM 88.0 °F 98.5 °F 75.9 °F 67% 29.88 in 10.0 mi SE 16.1 mph - N/A   Scattered Clouds
2:53 PM 88.0 °F 98.5 °F 75.9 °F 67% 29.86 in 10.0 mi SSE 17.3 mph - 0.00 in   Partly Cloudy
3:53 PM 84.9 °F 94.1 °F 75.9 °F 74% 29.86 in 10.0 mi South 12.7 mph - N/A   Mostly Cloudy
4:53 PM 84.9 °F 93.3 °F 75.0 °F 72% 29.86 in 10.0 mi SSW 11.5 mph 20.7 mph N/A   Mostly Cloudy
5:53 PM 80.1 °F 85.4 °F 75.9 °F 87% 29.88 in 8.0 mi West 3.5 mph - 0.01 in Rain Light Rain
6:53 PM 82.0 °F 90.2 °F 77.0 °F 85% 29.87 in 10.0 mi SW 5.8 mph - 0.00 in   Scattered Clouds
7:53 PM 81.0 °F 86.2 °F 73.9 °F 79% 29.89 in 10.0 mi SW 6.9 mph - N/A   Scattered Clouds
8:53 PM 81.0 °F 86.7 °F 75.0 °F 82% 29.90 in 10.0 mi SSW 4.6 mph - 0.00 in   Mostly Cloudy
9:53 PM 82.0 °F 89.4 °F 75.9 °F 82% 29.92 in 10.0 mi SW 4.6 mph - N/A   Mostly Cloudy
10:23 PM 80.6 °F 86.2 °F 75.2 °F 84% 29.91 in 10.0 mi Calm Calm - N/A   Mostly Cloudy
10:33 PM 80.6 °F 86.2 °F 75.2 °F 84% 29.91 in 10.0 mi SSW 3.5 mph - N/A   Scattered Clouds
10:53 PM 81.0 °F 87.3 °F 75.9 °F 85% 29.91 in 10.0 mi SSW 4.6 mph - N/A   Clear
11:53 PM 80.1 °F 85.8 °F 77.0 °F 90% 29.91 in 10.0 mi South 5.8 mph - N/A   Clear